Weather observations for the past three days for
Perryville Airport
Imperial (Metric)
Date Time (akdt) Wind (mph) Vis. (mi.) Weather Sky Cond. Temperature (ºF) Relative Humidity Wind Chill (°F) Heat Index (°F) Pressure Precipitation (in)
Air Dwpt 6 hour altimeter (in) sea level (mb) 1 hr 3 hr 6 hr
Max. Min.
15 11:56 SW 7 10.00 Overcast FEW030 BKN045 OVC075 53.1 44.1 72% 29.84 1010.1
15 10:56 SW 7 10.00 Partly Cloudy SCT044 53.1 44.1 72% 29.83 1009.7
15 09:56 SW 8 9.00 Partly Cloudy SCT040 SCT120 52 43 52 46 72% 29.82 1009.7 0.03
15 08:56 SW 5 9.00 Overcast SCT043 BKN060 OVC070 50 44.1 80% 49 29.82 1009.6
15 07:56 SW 6 9.00 Overcast BKN045 BKN060 OVC080 48 44.1 86% 46 29.81 1009.1
15 06:56 SW 7 9.00 A Few Clouds FEW036 46 45 96% 43 29.81 1009.1 0.03
15 05:56 Calm 4.00 Fog/Mist SCT027 OVC075 46.9 45 93% 29.81 1009.1 0.01
15 04:56 SW 3 10.00 Light Rain OVC065 48 45 89% 29.81 1009.1 0.02
15 03:56 SW 5 9.00 Light Rain FEW044 BKN060 OVC075 46.9 45 51.1 46.9 93% 45 29.81 1009.2 0.04 0.04
15 02:56 Calm 9.00 Light Rain SCT018 BKN055 OVC070 48 46 93% 29.81 1009.4
15 01:56 SW 6 10.00 Light Rain OVC050 50 45 83% 48 29.82 1009.4
15 00:56 Calm 10.00 Overcast OVC048 50 44.1 80% 29.81 1009.3
14 23:56 SW 6 10.00 Overcast SCT029 OVC055 50 45 83% 48 29.8 1009.0
14 22:56 SW 6 9.00 Overcast FEW030 BKN055 OVC090 51.1 44.1 77% 29.8 1008.9
14 21:56 Vrbl 5 9.00 Overcast FEW055 BKN075 OVC095 51.1 44.1 54 51.1 77% 29.78 1008.3
14 20:56 SW 10 9.00 Overcast OVC080 52 45 77% 29.78 1008.1
14 19:56 SW 13 9.00 Overcast BKN036 OVC055 53.1 44.1 72% 29.78 1008.1
14 18:56 SW 9 9.00 Mostly Cloudy FEW075 BKN090 BKN100 52 44.1 75% 29.77 1008.0
14 17:56 W 9 9.00 Overcast OVC090 53.1 42.1 66% 29.77 1007.7
14 16:56 SW 14 9.00 Overcast OVC095 52 42.1 69% 29.77 1007.8
14 15:56 SW 13 G 18 10.00 Overcast BKN040 OVC100 53.1 42.1 55 51.1 66% 29.76 1007.6
14 14:56 W 8 9.00 A Few Clouds FEW110 54 41 62% 29.75 1007.1
14 13:56 W 9 9.00 Overcast OVC060 54 41 62% 29.74 1006.7
14 12:56 W 13 9.00 Overcast OVC060 54 42.1 64% 29.72 1006.3
14 11:56 W 14 G 21 9.00 Overcast FEW027 BKN048 OVC060 53.1 44.1 72% 29.71 1005.8
14 10:56 SW 12 G 17 6.00 Overcast with Haze SCT041 OVC055 51.1 46 83% 29.71 1005.8
14 09:56 SW 13 8.00 Overcast FEW022 OVC027 51.1 46 51.1 48 83% 29.71 1005.8
14 08:56 SW 14 10.00 Mostly Cloudy BKN034 51.1 44.1 77% 29.69 1005.1
14 07:56 W 8 9.00 Mostly Cloudy FEW021 BKN029 50 44.1 80% 47 29.69 1005.0
14 06:56 W 9 10.00 Overcast SCT029 BKN034 OVC100 48.9 42.1 77% 45 29.68 1004.9
14 05:56 W 6 10.00 Overcast FEW025 BKN075 OVC110 48.9 43 80% 47 29.69 1005.0
14 04:56 W 8 G 17 10.00 Overcast BKN017 BKN023 OVC110 48.9 44.1 83% 46 29.69 1005.0
14 03:56 Calm 10.00 Overcast BKN017 BKN029 OVC060 48.9 43 48.9 45 80% 29.69 1005.1
14 02:56 SW 10 10.00 Overcast OVC030 48.9 43 80% 45 29.7 1005.5
14 01:56 Vrbl 3 10.00 Overcast SCT027 BKN032 OVC050 48 41 77% 29.7 1005.4
14 00:56 W 5 10.00 Mostly Cloudy BKN042 46 39 77% 44 29.69 1005.1
13 23:56 W 9 10.00 A Few Clouds FEW050 46.9 37.9 71% 43 29.69 1005.2
13 22:56 W 7 10.00 Fair CLR 46.9 37 69% 44 29.69 1005.0
13 21:56 W 12 9.00 Fair CLR 48.9 36 55.9 48.9 61% 45 29.68 1004.7
13 20:56 NW 12 G 18 9.00 Overcast OVC042 52 36 55% 29.66 1004.1
13 19:56 NW 15 G 23 9.00 Fair CLR 52 35.1 53% 29.64 1003.5
13 18:56 NW 16 G 24 9.00 Fair CLR 54 37 53% 29.64 1003.3
13 17:56 W 14 G 22 9.00 Fair CLR 55 37 51% 29.62 1002.9
13 16:56 NW 10 G 17 9.00 Fair CLR 55.9 37.9 51% 29.61 1002.4
13 15:56 NW 15 G 24 9.00 Mostly Cloudy BKN042 54 37.9 57 48.9 55% 29.6 1002.2 0.01
13 14:56 NW 16 G 22 9.00 A Few Clouds FEW050 55.9 39.9 55% 29.59 1001.6
13 13:56 W 15 G 21 9.00 Mostly Cloudy FEW033 BKN045 55.9 42.1 60% 29.58 1001.3
13 12:56 SW 6 9.00 Overcast FEW022 BKN026 OVC060 55 46.9 74% 29.57 1001.2 0.01
13 11:56 N 5 10.00 Overcast OVC038 52 46.9 83% 29.57 1001.0
13 10:56 Vrbl 6 4.00 Light Rain Fog/Mist FEW013 OVC030 48.9 46.9 93% 47 29.57 1001.2 0.01
13 09:56 N 8 5.00 Light Rain Fog/Mist FEW010 BKN015 OVC023 48.9 46.9 50 48 93% 46 29.57 1001.1 0.05 0.22
13 08:56 Calm 6.00 Light Rain Fog/Mist OVC011 48.9 46.9 93% 29.56 1000.9 0.05
13 07:56 N 5 5.00 Light Rain Fog/Mist OVC011 48 46 93% 47 29.57 1001.1 0.05
13 06:56 N 6 6.00 Light Rain Fog/Mist OVC005 48.9 48 97% 47 29.58 1001.3 0.07 0.07
13 05:56 Calm 3.00 Light Rain Fog/Mist OVC005 50 48.9 96% 29.59 1001.8
13 04:56 Calm 4.00 Fog/Mist OVC007 50 48.9 96% 29.61 1002.4
13 03:56 Vrbl 3 7.00 Overcast OVC007 48.9 48.9 53.1 48.9 100% 29.61 1002.5 0.01 0.06
13 02:56 N 5 2.50 Light Rain Fog/Mist OVC006 50 48.9 96% 49 29.63 1003.1 0.01
13 01:56 N 3 2.00 Light Rain Fog/Mist OVC004 51.1 50 96% 29.64 1003.5 0.01
13 00:56 Calm 2.50 Light Rain Fog/Mist SCT008 OVC013 52 51.1 97% 29.65 1003.9 0.02 0.03
12 23:56 Calm 1.75 Light Rain Fog/Mist OVC010 52 51.1 97% 29.66 1004.0 0.01
12 22:56 E 3 1.50 Light Rain Fog/Mist OVC008 52 51.1 97% 29.65 1003.7
12 21:56 E 3 8.00 Overcast OVC013 53.1 51.1 55 53.1 93% 29.65 1003.7
12 20:56 E 6 3.00 Light Rain Fog/Mist OVC015 53.1 50 89% 29.64 1003.3
12 19:56 E 8 6.00 Fog/Mist OVC027 54 51.1 90% 29.62 1002.9
12 18:56 E 5 6.00 Overcast with Haze BKN019 OVC026 55 50 83% 29.61 1002.6
12 17:56 E 6 9.00 Overcast OVC026 55 48.9 80% 29.6 1002.1
12 16:56 SE 5 9.00 Overcast OVC028 54 50 87% 29.59 1001.8
12 15:56 SE 5 9.00 Overcast BKN018 OVC024 54 48.9 54 51.1 83% 29.59 1001.6
12 14:56 S 6 9.00 Overcast OVC018 53.1 48.9 86% 29.57 1001.1
12 13:56 S 6 10.00 Overcast FEW007 BKN014 OVC019 53.1 50 89% 29.56 1000.8
12 12:56 Calm 7.00 Overcast FEW037 OVC046 51.1 48.9 92% 29.55 1000.5
Date Time (akdt) Wind (mph) Vis. (mi.) Weather Sky Cond. Air Dwpt Max. Min. Relative Humidity Wind Chill (°F) Heat Index (°F) altimeter (in) sea level (mb) 1 hr 3 hr 6 hr
6 hour
Temperature (ºF) Pressure Precipitation (in)